Regional Weather Roundup
Issued by NWS

Home | Current Version | Previous Version | Graphics & Text | Print | Product List | Glossary On
Versions: 1 2 3 4 5 6 7 8 9 10 11 12 13 14 15 16 17 18 19 20 21 22 23 24 25 26 27 28 29 30 31 32 33 34 35 36 37 38 39 40 41 42 43 44 45 46 47 48 49 50
000
ASUS43 KLSX 290610
RWRMO

WEATHER SUMMARY FOR MISSOURI
NATIONAL WEATHER SERVICE SPRINGFIELD MO
100 AM CDT FRI JUL 29 2016

NOTE: "FAIR" INDICATES FEW OR NO CLOUDS BELOW 12,000 FEET WITH NO
       SIGNIFICANT WEATHER AND/OR OBSTRUCTIONS TO VISIBILITY.
       CURRENT SKY AND/OR WEATHER CONDITIONS ARE NOT AVAILABLE FOR
       CHILLICOTHE AND FARMINGTON.

MOZ001>031-035>038-043-044-053-054-290700-
...NORTHERN AND WESTERN MISSOURI...

CITY           SKY/WX    TMP DP  RH WIND       PRES   REMARKS
KANSAS CTY INT CLOUDY    76  65  68 NE7       29.99R
6HR MIN TEMP:  75; 6HR MAX TEMP:  85;

KANSAS C DTWN  CLOUDY    79  65  62 NE9       29.96F
6HR MIN TEMP:  79; 6HR MAX TEMP:  88;

ST JOSEPH      CLOUDY    74  66  76 NE5       29.99S
6HR MIN TEMP:  73; 6HR MAX TEMP:  84;

CHILLICOTHE      N/A     70  66  87 CALM      29.99F
6HR MIN TEMP:  70; 6HR MAX TEMP:  87;

KIRKSVILLE     CLOUDY    64  62  93 NW5       29.99S
6HR MIN TEMP:  64; 6HR MAX TEMP:  81;


$$
MOZ066>068-077>081-088>096-101>105-290700-
...SOUTHWEST MISSOURI...

CITY           SKY/WX    TMP DP  RH WIND       PRES   REMARKS
SPRINGFIELD    CLEAR     73  69  87 CALM      29.98F
6HR MIN TEMP:  73; 6HR MAX TEMP:  83;

JOPLIN         PTCLDY    76  70  82 N3        29.98S
6HR MIN TEMP:  75; 6HR MAX TEMP:  87;


$$
MOZ032>034-039>042-045>050-055>058-069>072-290700-
...CENTRAL MISSOURI...

CITY           SKY/WX    TMP DP  RH WIND       PRES   REMARKS
COLUMBIA       CLEAR     72  70  93 NW5       29.97F
6HR MIN TEMP:  71; 6HR MAX TEMP:  79;

JEFFERSON CITY PTCLDY    71  70  96 CALM      29.96S
6HR MIN TEMP:  71; 6HR MAX TEMP:  78;

ROLLA          CLEAR     69  67  93 NW3       29.96S
6HR MIN TEMP:  67; 6HR MAX TEMP:  78;

SEDALIA        CLOUDY    75  72  90 E6        29.98F
6HR MIN TEMP:  74; 6HR MAX TEMP:  84;

WHITEMAN AFB   MOCLDY    74  72  95 E1        29.96F
OSAGE BEACH    CLEAR     72  71  97 CALM      29.98S

$$
MOZ051-052-059>065-290700-
...EAST CENTRAL MISSOURI...

CITY           SKY/WX    TMP DP  RH WIND       PRES   REMARKS
ST LOUIS INTL  PTCLDY    78  70  76 NW5       29.94R
6HR MIN TEMP:  78; 6HR MAX TEMP:  87;

SPIRIT OF STL  PTCLDY    76  73  91 CALM      29.92S
6HR MIN TEMP:  74; 6HR MAX TEMP:  86;

ST CHARLES     CLOUDY    76  70  82 N6        29.92S
6HR MIN TEMP:  75; 6HR MAX TEMP:  84;


$$
MOZ072>076-082>087-097>100-106>115-290700-
...SOUTH CENTRAL AND SOUTHEAST MISSOURI...

CITY           SKY/WX    TMP DP  RH WIND       PRES   REMARKS
CAPE GIRARDEAU PTCLDY    73  71  93 S8        29.92S
6HR MIN TEMP:  72; 6HR MAX TEMP:  79; 6HR PCP:  0.04;

POPLAR BLUFF   MOCLDY    73  71  93 W3        29.93S
6HR MIN TEMP:  73; 6HR MAX TEMP:  78; 6HR PCP: TRACE;

WEST PLAINS    CLEAR     69  66  90 W5        29.99S
6HR MIN TEMP:  69; 6HR MAX TEMP:  85; 6HR PCP:  0.12;


$$



USA.gov is the U.S. government's official web portal to all federal, state and local government web resources and services.